PulseSat

PulseSat

GSAT0208 (GALILEO 11)

Last updated on Dec. 10, 2018, 12:08 a.m. UTC

1 41175U 15079B   18343.28694909  .00000066  00000-0  00000+0 0  9997
2 41175  54.9283 176.8000 0002414 336.0198  24.0178  1.70473588 18536
UTC
Height (km)
Latitude
Longitude
Inclination
Orbital Period

Next 30 passes for location: Hong Kong

Rise time Rise Azimuth (degrees) Set time Set Azimuth (degrees) Duration Max altitude (degrees)

No matching passes for this satellites

PulseSat

PulseSat is the new satellites software and hardware trackering solution by Pulsely.
Satellite Two Line Element Set source: US Air Force Space Command

Download PulseSat for iOS
© 2017 Pulsely Limited